When you browse on this site, cookies collect data to enhance your experience and personalize the content and advertising you see.
Visit our Privacy Policy to learn more. By continuing to use the site, you agree to this use of cookies and data.

Previsão horária em Abbottabad

Hoje, 28 Setembro, Segunda-feira

Tempo Temperatura Precipitação Vento Pressão Humidade
00:00 +18°C° 0 mm 3 m/s 655 mmHg 51%
01:00 +18°C° 0 mm 3 m/s 654 mmHg 51%
02:00 +18°C° 0 mm 2 m/s 654 mmHg 51%
03:00 +18°C° 0 mm 3 m/s 654 mmHg 50%
04:00 +17°C° 0 mm 3 m/s 654 mmHg 49%
05:00 +17°C° 0 mm 3 m/s 654 mmHg 50%
06:00 +19°C° 0 mm 3 m/s 655 mmHg 49%
07:00 +20°C° 0 mm 2 m/s 656 mmHg 49%
08:00 +21°C° 0 mm 2 m/s 656 mmHg 48%
09:00 +24°C° 0 mm 2 m/s 657 mmHg 42%
10:00 +26°C° 0 mm 1 m/s 657 mmHg 36%
11:00 +28°C° 0 mm 1 m/s 658 mmHg 29%
12:00 +28°C° 0 mm 1 m/s 657 mmHg 29%
13:00 +29°C° 0 mm 2 m/s 657 mmHg 30%
14:00 +29°C° 0 mm 2 m/s 656 mmHg 30%
15:00 +28°C° 0 mm 2 m/s 656 mmHg 35%
16:00 +27°C° 0 mm 2 m/s 656 mmHg 41%
17:00 +26°C° 0 mm 1 m/s 655 mmHg 46%
18:00 +24°C° 0 mm 1 m/s 655 mmHg 49%
19:00 +22°C° 0 mm 1 m/s 655 mmHg 51%
20:00 +21°C° 0 mm 1 m/s 655 mmHg 53%
21:00 +20°C° 0 mm 1 m/s 654 mmHg 52%
22:00 +19°C° 0 mm 2 m/s 654 mmHg 51%
23:00 +18°C° 0 mm 2 m/s 654 mmHg 51%

Amanhã, 29 Setembro, Terça-feira

Tempo Temperatura Precipitação Vento Pressão Humidade
00:00 +18°C° 0 mm 2 m/s 654 mmHg 50%
01:00 +18°C° 0 mm 2 m/s 654 mmHg 48%
02:00 +18°C° 0 mm 2 m/s 653 mmHg 47%
03:00 +17°C° 0 mm 2 m/s 653 mmHg 47%
04:00 +17°C° 0 mm 2 m/s 653 mmHg 46%
05:00 +17°C° 0 mm 2 m/s 653 mmHg 46%
06:00 +19°C° 0 mm 2 m/s 654 mmHg 45%
07:00 +20°C° 0 mm 2 m/s 654 mmHg 44%
08:00 +23°C° 0 mm 2 m/s 655 mmHg 43%
09:00 +24°C° 0 mm 2 m/s 656 mmHg 39%
10:00 +26°C° 0 mm 1 m/s 656 mmHg 34%
11:00 +28°C° 0 mm 1 m/s 656 mmHg 29%
12:00 +29°C° 0 mm 1 m/s 656 mmHg 28%
13:00 +29°C° 0 mm 2 m/s 656 mmHg 27%
14:00 +29°C° 0 mm 2 m/s 656 mmHg 26%
15:00 +28°C° 0 mm 2 m/s 655 mmHg 30%
16:00 +27°C° 0 mm 1 m/s 654 mmHg 35%
17:00 +26°C° 0 mm 1 m/s 654 mmHg 39%
18:00 +25°C° 0 mm 1 m/s 654 mmHg 40%
19:00 +23°C° 0 mm 1 m/s 654 mmHg 41%
20:00 +21°C° 0 mm 1 m/s 654 mmHg 42%
21:00 +20°C° 0 mm 2 m/s 654 mmHg 41%
22:00 +19°C° 0 mm 2 m/s 654 mmHg 41%
23:00 +19°C° 0 mm 2 m/s 654 mmHg 41%

Depois de amanhã, 30 Setembro, Quarta-feira

Tempo Temperatura Precipitação Vento Pressão Humidade
00:00 +19°C° 0 mm 2 m/s 654 mmHg 40%
01:00 +18°C° 0 mm 3 m/s 653 mmHg 40%
02:00 +18°C° 0 mm 3 m/s 653 mmHg 39%
03:00 +18°C° 0 mm 3 m/s 653 mmHg 39%
04:00 +18°C° 0 mm 3 m/s 653 mmHg 38%
05:00 +17°C° 0 mm 3 m/s 653 mmHg 38%
06:00 +19°C° 0 mm 2 m/s 653 mmHg 38%
07:00 +20°C° 0 mm 2 m/s 654 mmHg 39%
08:00 +23°C° 0 mm 2 m/s 655 mmHg 39%
09:00 +25°C° 0 mm 2 m/s 655 mmHg 35%
10:00 +27°C° 0 mm 1 m/s 656 mmHg 30%
11:00 +29°C° 0 mm 1 m/s 656 mmHg 25%
12:00 +30°C° 0 mm 1 m/s 656 mmHg 25%
13:00 +30°C° 0 mm 1 m/s 656 mmHg 24%
14:00 +30°C° 0 mm 2 m/s 655 mmHg 23%
15:00 +29°C° 0 mm 1 m/s 654 mmHg 29%
16:00 +28°C° 0 mm 1 m/s 654 mmHg 35%
17:00 +27°C° 0 mm 1 m/s 653 mmHg 41%
18:00 +25°C° 0 mm 1 m/s 653 mmHg 42%
19:00 +23°C° 0 mm 1 m/s 653 mmHg 43%
20:00 +21°C° 0 mm 1 m/s 653 mmHg 44%
21:00 +21°C° 0 mm 1 m/s 653 mmHg 43%
22:00 +19°C° 0 mm 2 m/s 653 mmHg 42%
23:00 +19°C° 0 mm 2 m/s 653 mmHg 40%

1 Outubro, Quinta-feira

Tempo Temperatura Precipitação Vento Pressão Humidade
00:00 +19°C° 0 mm 2 m/s 653 mmHg 40%
01:00 +19°C° 0 mm 2 m/s 653 mmHg 41%
02:00 +18°C° 0 mm 2 m/s 652 mmHg 41%
03:00 +18°C° 0 mm 2 m/s 652 mmHg 41%
04:00 +18°C° 0 mm 2 m/s 652 mmHg 41%
05:00 +18°C° 0 mm 2 m/s 652 mmHg 42%
06:00 +19°C° 0 mm 2 m/s 653 mmHg 41%
07:00 +21°C° 0 mm 2 m/s 654 mmHg 41%
08:00 +23°C° 0 mm 2 m/s 654 mmHg 41%
09:00 +25°C° 0 mm 2 m/s 655 mmHg 34%
10:00 +28°C° 0 mm 1 m/s 655 mmHg 28%
11:00 +30°C° 0 mm 1 m/s 656 mmHg 21%
12:00 +30°C° 0 mm 1 m/s 656 mmHg 20%
13:00 +30°C° 0 mm 1 m/s 655 mmHg 19%
14:00 +31°C° 0 mm 2 m/s 655 mmHg 19%
15:00 +29°C° 0 mm 2 m/s 654 mmHg 24%
16:00 +28°C° 0 mm 1 m/s 653 mmHg 30%
17:00 +27°C° 0 mm 1 m/s 653 mmHg 36%
18:00 +25°C° 0 mm 1 m/s 653 mmHg 37%
19:00 +23°C° 0 mm 1 m/s 653 mmHg 37%
20:00 +21°C° 0 mm 1 m/s 653 mmHg 38%
21:00 +20°C° 0 mm 2 m/s 652 mmHg 37%
22:00 +19°C° 0 mm 2 m/s 652 mmHg 35%
23:00 +19°C° 0 mm 2 m/s 652 mmHg 34%

2 Outubro, Sexta-feira

Tempo Temperatura Precipitação Vento Pressão Humidade
00:00 +19°C° 0 mm 3 m/s 652 mmHg 33%
01:00 +19°C° 0 mm 3 m/s 652 mmHg 33%
02:00 +18°C° 0 mm 3 m/s 652 mmHg 32%
03:00 +18°C° 0 mm 3 m/s 652 mmHg 32%
04:00 +18°C° 0 mm 3 m/s 652 mmHg 32%
05:00 +18°C° 0 mm 3 m/s 652 mmHg 32%
06:00 +20°C° 0 mm 3 m/s 652 mmHg 33%
07:00 +21°C° 0 mm 3 m/s 653 mmHg 35%
08:00 +23°C° 0 mm 2 m/s 654 mmHg 36%
09:00 +25°C° 0 mm 2 m/s 654 mmHg 31%
10:00 +28°C° 0 mm 1 m/s 655 mmHg 27%
11:00 +30°C° 0 mm 1 m/s 655 mmHg 22%
12:00 +30°C° 0 mm 1 m/s 655 mmHg 22%
13:00 +30°C° 0 mm 2 m/s 655 mmHg 21%
14:00 +31°C° 0 mm 2 m/s 654 mmHg 21%
15:00 +29°C° 0 mm 2 m/s 654 mmHg 26%
16:00 +28°C° 0 mm 2 m/s 653 mmHg 31%
17:00 +27°C° 0 mm 1 m/s 653 mmHg 36%
18:00 +25°C° 0 mm 1 m/s 653 mmHg 36%
19:00 +23°C° 0 mm 1 m/s 653 mmHg 37%
20:00 +21°C° 0 mm 1 m/s 653 mmHg 38%
21:00 +21°C° 0 mm 1 m/s 653 mmHg 38%
22:00 +20°C° 0 mm 2 m/s 653 mmHg 38%
23:00 +19°C° 0 mm 2 m/s 653 mmHg 38%

3 Outubro, Sábado

Tempo Temperatura Precipitação Vento Pressão Humidade
00:00 +19°C° 0 mm 2 m/s 653 mmHg 38%
01:00 +19°C° 0 mm 2 m/s 653 mmHg 38%
02:00 +18°C° 0 mm 2 m/s 652 mmHg 38%
03:00 +18°C° 0 mm 2 m/s 652 mmHg 38%
04:00 +18°C° 0 mm 2 m/s 652 mmHg 38%
05:00 +18°C° 0 mm 2 m/s 652 mmHg 38%
06:00 +19°C° 0 mm 2 m/s 653 mmHg 39%
07:00 +21°C° 0 mm 2 m/s 654 mmHg 39%
08:00 +23°C° 0 mm 2 m/s 654 mmHg 39%
09:00 +25°C° 0 mm 2 m/s 655 mmHg 34%
10:00 +27°C° 0 mm 1 m/s 655 mmHg 29%
11:00 +29°C° 0 mm 1 m/s 656 mmHg 23%
12:00 +30°C° 0 mm 1 m/s 656 mmHg 22%
13:00 +30°C° 0 mm 2 m/s 656 mmHg 21%
14:00 +30°C° 0 mm 2 m/s 655 mmHg 20%
15:00 +29°C° 0 mm 2 m/s 655 mmHg 24%
16:00 +27°C° 0 mm 2 m/s 654 mmHg 29%
17:00 +26°C° 0 mm 2 m/s 654 mmHg 34%
18:00 +24°C° 0 mm 1 m/s 654 mmHg 34%
19:00 +23°C° 0 mm 1 m/s 654 mmHg 34%
20:00 +21°C° 0 mm 1 m/s 654 mmHg 34%
21:00 +20°C° 0 mm 1 m/s 654 mmHg 34%
22:00 +19°C° 0 mm 2 m/s 654 mmHg 33%
23:00 +19°C° 0 mm 2 m/s 654 mmHg 33%
Mostrar mais